Location: Newark
(34.3481°N, 134.0494°E)
Time: 21:57:27
(UTC+00:00)

Vanguard 3 - Pass Details

Date: 05 February 2020
Orbit: 508 x 3263 km, 33.3° (Epoch: 19 February)

Event Time Altitude Azimuth Distance (km) Brightness Sun altitude
Rises 07:04:11 0° 262° (W) 5,919 12.8 16.3°
Reaches altitude 10° 07:07:33 10° 262° (W) 5,199 12.7 15.7°
Maximum altitude 07:24:39 87° 177° (S) 3,197 10.4 12.7°
Drops below altitude 10° 07:44:40 10° 90° (E) 5,934 11.0 9.1°
Sets 07:48:50 0° 91° (E) 6,749 11.3 8.3°
